Regional Weather Roundup
Issued by NWS Cleveland, OH

Home | Current Version | Previous Version | Text Only | Print | Product List | Glossary On
Versions: 1 2 3 4 5 6 7 8 9 10 11 12 13 14 15 16 17 18 19 20 21 22 23 24 25 26 27 28 29 30 31 32 33 34 35 36 37 38 39 40 41 42 43 44 45 46 47 48 49 50
000
ASUS41 KCLE 272310
RWRCLE
OHIO REGIONAL WEATHER ROUNDUP
NATIONAL WEATHER SERVICE WILMINGTON, OH
600 PM EST TUE JAN 27 2015

NOTE: "FAIR" INDICATES FEW OR NO CLOUDS BELOW 12,000 FEET WITH NO
SIGNIFICANT WEATHER AND/OR OBSTRUCTIONS TO VISIBILITY.

OHZ001>008-015>018-024>027-034-035-043-044-280000-
   NORTHWEST OHIO

CITY           SKY/WX    TMP DP  RH WIND       PRES   REMARKS
DEFIANCE       CLEAR     23  10  57 N6        30.18R WCI  16
FINDLAY        CLEAR     19  10  68 W6        30.15R WCI  11
TOLEDO EXPRESS CLEAR     24  12  60 NW6       30.16R WCI  17
TOLEDO EXEC    CLEAR     24  10  55 N5        30.17R WCI  18
LIMA           CLEAR     18   9  68 NW3       30.15R
$$

OHZ009>014-019>023-028>033-038-089-280000-
   NORTHEAST OHIO

CITY           SKY/WX    TMP DP  RH WIND       PRES   REMARKS
CLE-HOPKINS    PTCLDY    18  11  74 NW9       30.16R WCI   7
CLE-LAKEFRONT  CLOUDY    18  10  71 NW3       30.15R
CUY CO. ARPT   MOCLDY    19  12  73 N9        30.13R WCI   9
LORAIN-ELYRIA  CLEAR     17  10  74 N6        30.14R WCI   9
ASHTABULA      CLOUDY    18  13  80 N5        30.10R WCI  11
AKRON-CANTON   CLOUDY    18   8  65 N12       30.08R WCI   5
WOOSTER        CLEAR     13   7  77 NW9       30.11R WCI   1
MANSFIELD      PTCLDY    13   7  77 NW7       30.11R WCI   3
YOUNGSTOWN     LGT SNOW  18  13  80 NW13      30.06R WCI   5
$$

OHZ042-051>053-060>062-070>072-077>081-280000-
  SOUTHWEST OHIO

CITY           SKY/WX    TMP DP  RH WIND       PRES   REMARKS
CINC-COVINGTON FAIR      26  13  57 N8        30.15R WCI  18
CINC-LUNKEN    CLEAR     25  12  58 N9        30.19R WCI  15
HAMILTON       CLEAR     24  13  62 N6        30.19R WCI  17
DAYTON         PTCLDY    18  11  74 N9        30.16R WCI   7
WRIGHT-PAT AFB CLEAR     21  12  69 N6        30.17R WCI  13
DAYTON GENERAL CLEAR     22  13  68 NW8       30.14R WCI  12
WILMINGTON     CLEAR     20  10  65 N10       30.14R WCI   9
$$

OHZ036-037-039>041-045>050-054>059-063>069-073>076-082>088-280000-
  CENTRAL AND SOUTHEAST OHIO

CITY           SKY/WX    TMP DP  RH WIND       PRES   REMARKS
COLUMBUS       MOCLDY    20  12  71 N12       30.14R WCI   8
OSU AIRPORT    PTCLDY    19  11  70 N9        30.15R WCI   8
BOLTON FIELD   CLEAR     19  12  73 N9        30.15R WCI   9
RICKENBACK AFB MOCLDY    20  12  70 NW13      30.15R WCI   8
NEWARK         MOCLDY    21  11  65 N8        30.13R WCI  11
MARION         CLEAR     17   8  67 N7        30.15R WCI   8
LANCASTER      CLOUDY    21  12  68 N13       30.14R WCI   9
ZANESVILLE     CLOUDY    20  13  74 NW8       30.11R WCI  10
NEW PHILLY     CLOUDY    21  12  68 NW9       30.11R WCI  11
$$


USA.gov is the U.S. government's official web portal to all federal, state and local government web resources and services.